Time,TemperatureF,DewpointF,PressureIn,WindDirection,WindDirectionDegrees,WindSpeedMPH,WindSpeedGustMPH,Humidity,HourlyPrecipIn,Conditions,Clouds,dailyrainin,SolarRadiationWatts/m^2,SoftwareType,DateUTC
2013-03-31 00:13:00,40.4,29.0,30.14,South,190,0.0,1.0,65,0.00,,,0.00,0,weatherlink.com 1.10,2013-03-31 04:13:00,
2013-03-31 00:28:00,40.9,29.0,30.14,South,171,1.0,3.0,64,0.00,,,0.00,0,weatherlink.com 1.10,2013-03-31 04:28:00,
2013-03-31 00:43:00,41.6,30.0,30.14,South,175,1.0,4.0,63,0.00,,,0.00,0,weatherlink.com 1.10,2013-03-31 04:43:00,
2013-03-31 00:58:00,41.8,30.0,30.14,SSE,159,0.0,4.0,63,0.00,,,0.00,0,weatherlink.com 1.10,2013-03-31 04:58:00,
2013-03-31 01:13:00,41.5,30.0,30.14,SSE,164,1.0,4.0,63,0.00,,,0.00,0,weatherlink.com 1.10,2013-03-31 05:13:00,
2013-03-31 01:28:00,40.9,29.0,30.14,South,169,0.0,2.0,64,0.00,,,0.00,0,weatherlink.com 1.10,2013-03-31 05:28:00,
2013-03-31 01:43:00,40.5,29.0,30.13,South,169,0.0,1.0,65,0.00,,,0.00,0,weatherlink.com 1.10,2013-03-31 05:43:00,
2013-03-31 01:58:00,40.1,29.0,30.14,South,169,0.0,1.0,66,0.00,,,0.00,0,weatherlink.com 1.10,2013-03-31 05:58:00,
2013-03-31 02:13:00,40.2,30.0,30.13,South,173,0.0,4.0,66,0.00,,,0.00,0,weatherlink.com 1.10,2013-03-31 06:13:00,
2013-03-31 02:28:00,40.2,30.0,30.13,WNW,302,0.0,2.0,66,0.00,,,0.00,0,weatherlink.com 1.10,2013-03-31 06:28:00,
2013-03-31 02:43:00,39.8,30.0,30.12,SSE,165,0.0,1.0,67,0.00,,,0.00,0,weatherlink.com 1.10,2013-03-31 06:43:00,
2013-03-31 02:58:00,39.7,30.0,30.12,SSE,167,0.0,2.0,68,0.00,,,0.00,0,weatherlink.com 1.10,2013-03-31 06:58:00,
2013-03-31 03:13:00,38.8,30.0,30.12,SSE,167,0.0,0.0,70,0.00,,,0.00,0,weatherlink.com 1.10,2013-03-31 07:13:00,
2013-03-31 03:28:00,37.8,30.0,30.12,SSE,167,0.0,0.0,72,0.00,,,0.00,0,weatherlink.com 1.10,2013-03-31 07:28:00,
2013-03-31 03:43:00,37.1,30.0,30.12,SSE,167,0.0,0.0,74,0.00,,,0.00,0,weatherlink.com 1.10,2013-03-31 07:43:00,
2013-03-31 03:58:00,36.1,29.0,30.12,SSE,167,0.0,0.0,76,0.00,,,0.00,0,weatherlink.com 1.10,2013-03-31 07:58:00,
2013-03-31 04:13:00,35.3,29.0,30.12,SSE,167,0.0,0.0,79,0.00,,,0.00,0,weatherlink.com 1.10,2013-03-31 08:13:00,
2013-03-31 04:28:00,35.0,30.0,30.12,SSE,167,0.0,0.0,81,0.00,,,0.00,0,weatherlink.com 1.10,2013-03-31 08:28:00,
2013-03-31 04:43:00,34.9,30.0,30.12,SSE,167,0.0,0.0,83,0.00,,,0.00,0,weatherlink.com 1.10,2013-03-31 08:43:00,
2013-03-31 04:58:00,34.9,31.0,30.11,SSE,167,0.0,0.0,84,0.00,,,0.00,0,weatherlink.com 1.10,2013-03-31 08:58:00,
2013-03-31 05:13:00,34.7,31.0,30.11,SSE,167,0.0,0.0,85,0.00,,,0.00,0,weatherlink.com 1.10,2013-03-31 09:13:00,
2013-03-31 05:28:00,34.3,30.0,30.11,SSE,167,0.0,0.0,85,0.00,,,0.00,0,weatherlink.com 1.10,2013-03-31 09:28:00,
2013-03-31 05:43:00,33.7,30.0,30.11,SSE,167,0.0,0.0,86,0.00,,,0.00,0,weatherlink.com 1.10,2013-03-31 09:43:00,
2013-03-31 05:59:00,33.3,30.0,30.11,SSE,167,0.0,0.0,87,0.00,,,0.00,0,weatherlink.com 1.10,2013-03-31 09:59:00,
2013-03-31 06:14:00,33.0,30.0,30.10,SSE,167,0.0,0.0,88,0.00,,,0.00,0,weatherlink.com 1.10,2013-03-31 10:14:00,
2013-03-31 06:29:00,32.8,30.0,30.10,SSE,167,0.0,0.0,89,0.00,,,0.00,0,weatherlink.com 1.10,2013-03-31 10:29:00,
2013-03-31 06:44:00,32.6,30.0,30.10,SSE,167,0.0,0.0,90,0.00,,,0.00,5,weatherlink.com 1.10,2013-03-31 10:44:00,
2013-03-31 06:59:00,32.5,30.0,30.10,SSE,167,0.0,0.0,91,0.00,,,0.00,21,weatherlink.com 1.10,2013-03-31 10:59:00,
2013-03-31 07:14:00,32.8,31.0,30.10,SSE,167,0.0,0.0,91,0.00,,,0.00,30,weatherlink.com 1.10,2013-03-31 11:14:00,
2013-03-31 07:29:00,33.3,31.0,30.10,SSE,167,0.0,0.0,92,0.00,,,0.00,47,weatherlink.com 1.10,2013-03-31 11:29:00,
2013-03-31 07:44:00,34.6,33.0,30.10,SSE,167,0.0,0.0,93,0.00,,,0.00,65,weatherlink.com 1.10,2013-03-31 11:44:00,
2013-03-31 07:59:00,36.4,35.0,30.10,SSE,167,0.0,0.0,94,0.00,,,0.00,83,weatherlink.com 1.10,2013-03-31 11:59:00,
2013-03-31 08:14:00,39.3,38.0,30.10,SSE,168,3.0,3.0,93,0.00,,,0.00,139,weatherlink.com 1.10,2013-03-31 12:14:00,
2013-03-31 08:29:00,41.6,39.0,30.09,South,178,0.0,4.0,89,0.00,,,0.00,105,weatherlink.com 1.10,2013-03-31 12:29:00,
2013-03-31 08:44:00,44.0,39.0,30.09,South,187,0.0,6.0,83,0.00,,,0.00,213,weatherlink.com 1.10,2013-03-31 12:44:00,
2013-03-31 08:59:00,47.0,39.0,30.09,South,172,4.0,8.0,74,0.00,,,0.00,132,weatherlink.com 1.10,2013-03-31 12:59:00,
2013-03-31 09:14:00,49.7,38.0,30.09,South,184,0.0,8.0,65,0.00,,,0.00,323,weatherlink.com 1.10,2013-03-31 13:14:00,
2013-03-31 09:29:00,51.5,37.0,30.09,South,174,7.0,10.0,59,0.00,,,0.00,264,weatherlink.com 1.10,2013-03-31 13:29:00,
2013-03-31 09:44:00,52.5,37.0,30.08,South,173,0.0,7.0,57,0.00,,,0.00,285,weatherlink.com 1.10,2013-03-31 13:44:00,
2013-03-31 09:59:00,53.5,36.0,30.08,South,181,3.0,9.0,52,0.00,,,0.00,315,weatherlink.com 1.10,2013-03-31 13:59:00,
2013-03-31 10:14:00,54.4,35.0,30.07,SSE,156,6.0,10.0,49,0.00,,,0.00,383,weatherlink.com 1.10,2013-03-31 14:14:00,
2013-03-31 10:29:00,55.2,36.0,30.07,SE,144,7.0,13.0,49,0.00,,,0.00,376,weatherlink.com 1.10,2013-03-31 14:29:00,
2013-03-31 10:45:00,55.2,36.0,30.06,South,186,3.0,17.0,48,0.00,,,0.00,387,weatherlink.com 1.10,2013-03-31 14:45:00,
2013-03-31 11:00:00,54.9,36.0,30.06,SSE,153,2.0,12.0,49,0.00,,,0.00,336,weatherlink.com 1.10,2013-03-31 15:00:00,
2013-03-31 11:15:00,55.2,36.0,30.05,SSE,161,8.0,17.0,49,0.00,,,0.00,355,weatherlink.com 1.10,2013-03-31 15:15:00,
2013-03-31 11:30:00,54.9,37.0,30.05,South,171,9.0,17.0,52,0.00,,,0.00,385,weatherlink.com 1.10,2013-03-31 15:30:00,
2013-03-31 11:45:00,55.0,39.0,30.04,SE,144,8.0,13.0,55,0.00,,,0.00,408,weatherlink.com 1.10,2013-03-31 15:45:00,
2013-03-31 12:00:00,54.6,39.0,30.03,SSE,163,2.0,18.0,55,0.00,,,0.00,401,weatherlink.com 1.10,2013-03-31 16:00:00,
2013-03-31 12:15:00,55.1,39.0,30.02,SSE,153,5.0,16.0,55,0.00,,,0.00,367,weatherlink.com 1.10,2013-03-31 16:15:00,
2013-03-31 12:30:00,54.1,39.0,30.01,SSE,167,6.0,19.0,57,0.00,,,0.00,322,weatherlink.com 1.10,2013-03-31 16:30:00,
2013-03-31 12:45:00,54.2,39.0,30.01,South,175,2.0,18.0,57,0.00,,,0.00,255,weatherlink.com 1.10,2013-03-31 16:45:00,
2013-03-31 13:00:00,53.5,39.0,30.00,SSE,165,1.0,15.0,58,0.00,,,0.00,229,weatherlink.com 1.10,2013-03-31 17:00:00,
2013-03-31 13:15:00,53.1,39.0,29.99,SSE,163,9.0,17.0,59,0.00,,,0.00,230,weatherlink.com 1.10,2013-03-31 17:15:00,
2013-03-31 13:30:00,52.6,38.0,29.98,SSE,150,1.0,15.0,59,0.00,,,0.00,179,weatherlink.com 1.10,2013-03-31 17:30:00,
2013-03-31 13:45:00,52.6,39.0,29.97,SW,226,5.0,15.0,61,0.00,,,0.00,279,weatherlink.com 1.10,2013-03-31 17:45:00,
2013-03-31 14:00:00,52.4,40.0,29.96,SE,144,5.0,16.0,63,0.00,,,0.00,455,weatherlink.com 1.10,2013-03-31 18:00:00,
2013-03-31 14:15:00,53.3,40.0,29.95,SE,138,5.0,12.0,62,0.00,,,0.00,248,weatherlink.com 1.10,2013-03-31 18:15:00,
2013-03-31 14:30:00,53.9,40.0,29.94,SSE,148,2.0,11.0,59,0.00,,,0.00,269,weatherlink.com 1.10,2013-03-31 18:30:00,
2013-03-31 14:45:00,53.6,39.0,29.93,SSW,198,4.0,14.0,59,0.00,,,0.00,202,weatherlink.com 1.10,2013-03-31 18:45:00,
2013-03-31 15:00:00,52.4,40.0,29.91,South,170,8.0,16.0,62,0.00,,,0.00,118,weatherlink.com 1.10,2013-03-31 19:00:00,
2013-03-31 15:15:00,51.7,40.0,29.91,SE,140,2.0,19.0,64,0.00,,,0.00,185,weatherlink.com 1.10,2013-03-31 19:15:00,
2013-03-31 15:30:00,51.2,40.0,29.90,SSE,165,7.0,16.0,66,0.00,,,0.00,144,weatherlink.com 1.10,2013-03-31 19:30:00,
2013-03-31 15:45:00,51.0,40.0,29.89,SE,142,0.0,13.0,67,0.00,,,0.00,153,weatherlink.com 1.10,2013-03-31 19:45:00,
2013-03-31 16:00:00,51.2,41.0,29.89,SE,142,8.0,16.0,67,0.00,,,0.00,54,weatherlink.com 1.10,2013-03-31 20:00:00,
2013-03-31 16:17:00,49.5,42.0,29.89,SSE,163,4.0,12.0,76,0.00,,,0.00,19,weatherlink.com 1.10,2013-03-31 20:17:00,
2013-03-31 16:30:00,48.0,43.0,29.88,SSE,165,0.0,14.0,83,0.01,,,0.01,51,weatherlink.com 1.10,2013-03-31 20:30:00,
2013-03-31 16:45:00,47.2,44.0,29.87,South,171,2.0,11.0,87,0.02,,,0.02,32,weatherlink.com 1.10,2013-03-31 20:45:00,
2013-03-31 17:00:00,46.7,44.0,29.86,SE,138,5.0,12.0,90,0.05,,,0.05,21,weatherlink.com 1.10,2013-03-31 21:00:00,
2013-03-31 17:15:00,46.5,44.0,29.86,SSE,151,0.0,9.0,91,0.09,,,0.09,14,weatherlink.com 1.10,2013-03-31 21:15:00,
2013-03-31 17:30:00,46.2,44.0,29.84,South,172,2.0,11.0,93,0.15,,,0.16,14,weatherlink.com 1.10,2013-03-31 21:30:00,
2013-03-31 17:45:00,45.9,44.0,29.83,South,171,1.0,9.0,93,0.21,,,0.23,5,weatherlink.com 1.10,2013-03-31 21:45:00,
2013-03-31 18:00:00,45.6,44.0,29.82,ESE,104,0.0,7.0,94,0.23,,,0.28,11,weatherlink.com 1.10,2013-03-31 22:00:00,
2013-03-31 18:16:00,45.4,44.0,29.81,SSE,155,0.0,5.0,94,0.24,,,0.34,9,weatherlink.com 1.10,2013-03-31 22:16:00,
2013-03-31 18:31:00,45.2,44.0,29.80,ESE,104,1.0,7.0,95,0.22,,,0.38,5,weatherlink.com 1.10,2013-03-31 22:31:00,
2013-03-31 18:46:00,45.1,44.0,29.78,East,97,0.0,4.0,95,0.17,,,0.40,0,weatherlink.com 1.10,2013-03-31 22:46:00,
2013-03-31 19:01:00,45.0,44.0,29.77,South,176,1.0,10.0,95,0.14,,,0.42,0,weatherlink.com 1.10,2013-03-31 23:01:00,
2013-03-31 19:31:00,45.4,44.0,29.74,SE,138,0.0,10.0,96,0.07,,,0.45,0,weatherlink.com 1.10,2013-03-31 23:31:00,
2013-03-31 19:46:00,45.6,45.0,29.73,SSE,165,0.0,3.0,96,0.06,,,0.46,0,weatherlink.com 1.10,2013-03-31 23:46:00,
2013-03-31 20:01:00,45.6,45.0,29.73,SE,124,0.0,5.0,96,0.05,,,0.47,0,weatherlink.com 1.10,2013-04-01 00:01:00,
2013-03-31 20:31:00,45.9,45.0,29.69,SSE,167,0.0,1.0,97,0.03,,,0.48,0,weatherlink.com 1.10,2013-04-01 00:31:00,
2013-03-31 20:46:00,46.3,46.0,29.71,SSE,167,0.0,2.0,97,0.03,,,0.49,0,weatherlink.com 1.10,2013-04-01 00:46:00,
2013-03-31 21:16:00,46.7,46.0,29.70,SSE,167,0.0,2.0,97,0.01,,,0.49,0,weatherlink.com 1.10,2013-04-01 01:16:00,
2013-03-31 21:31:00,46.8,46.0,29.69,SSE,167,0.0,0.0,97,0.01,,,0.49,0,weatherlink.com 1.10,2013-04-01 01:31:00,
2013-03-31 21:46:00,46.9,46.0,29.69,SSE,167,0.0,0.0,97,0.00,,,0.49,0,weatherlink.com 1.10,2013-04-01 01:46:00,
2013-03-31 22:01:00,47.0,46.0,29.70,WSW,258,0.0,3.0,97,0.00,,,0.49,0,weatherlink.com 1.10,2013-04-01 02:01:00,
2013-03-31 22:16:00,47.1,46.0,29.70,WSW,258,0.0,4.0,97,0.00,,,0.49,0,weatherlink.com 1.10,2013-04-01 02:16:00,
2013-03-31 23:01:00,48.5,48.0,29.69,WNW,300,1.0,11.0,98,0.00,,,0.49,0,weatherlink.com 1.10,2013-04-01 03:01:00,
2013-03-31 23:16:00,49.1,49.0,29.69,WNW,294,8.0,9.0,98,0.00,,,0.49,0,weatherlink.com 1.10,2013-04-01 03:16:00,
2013-03-31 23:31:00,49.5,49.0,29.69,West,279,1.0,13.0,97,0.00,,,0.49,0,weatherlink.com 1.10,2013-04-01 03:31:00,